Location: Linz
(48.3300°N, 14.3000°E)
Time: 18:14:13
(UTC+01:00)

Vanguard 2 Rocket - Visible Passes

Search period start: 19 January 2018 00:00
Search period end: 29 January 2018 00:00
Orbit: 556 x 3326 km, 32.9° (Epoch: 18 January)

Date Brightness Start Highest point End Pass type
(mag) Time Alt. Az. Time Alt. Az. Time Alt. Az.
20 Jan 10.6 06:21:09 10° S 06:24:57 12° SSE 06:28:12 10° SE visible
22 Jan 10.2 06:31:23 10° SSW 06:39:11 19° SSE 06:44:55 10° ESE visible
23 Jan 10.4 05:31:33 10° S 05:39:21 17° SSE 05:45:21 10° ESE visible
24 Jan 10.7 04:32:37 10° S 04:39:20 14° SSE 04:44:54 10° SE visible
24 Jan 10.0 06:43:21 10° SW 06:53:24 25° S 07:00:11 10° ESE visible
25 Jan 10.9 03:36:09 10° SSE 03:39:11 11° SSE 03:42:00 10° SE visible
25 Jan 10.2 05:42:41 10° SSW 05:53:30 24° SSE 06:01:05 10° ESE visible
26 Jan 10.4 04:42:29 10° SSW 04:53:24 21° SSE 05:01:30 10° ESE visible
26 Jan 9.7 06:56:05 10° SW 07:07:34 31° S 07:14:57 10° ESE visible
27 Jan 10.6 03:43:04 10° S 03:53:06 18° SSE 04:01:09 10° ESE visible
27 Jan 9.9 05:54:53 10° SW 06:07:37 30° SSE 06:16:04 10° ESE visible
28 Jan 10.8 02:45:09 10° S 02:52:45 14° SE 02:59:24 10° ESE visible
28 Jan 10.1 04:53:59 10° SSW 05:07:25 28° SSE 05:16:48 10° ESE visible
